FW7576 Weather Reports


time (UTC)temp
C
wind
direction
speed
KPH
gust
KPH
rain 1hr
cm
rain 24hr
cm
rain mn
cm
humidity
%
barometer
mb
20260506163040 10 238 8.0 20.9 0.00 0.00 0.00 43 1013.5
20260506161538 10 282 6.4 17.7 0.00 0.00 0.00 41 1013.4
20260506160037 10 287 6.4 19.3 0.00 0.00 0.00 40 1013.5
20260506154537 10 258 6.4 12.9 0.00 0.00 0.00 40 1013.6
20260506153059 10 308 6.4 17.7 0.00 0.00 0.00 40 1013.5
20260506151544 10 266 6.4 16.1 0.00 0.00 0.00 41 1013.6
20260506150047 10 311 6.4 14.5 0.00 0.00 0.00 41 1013.4
20260506144538 10 304 6.4 17.7 0.00 0.00 0.00 44 1013.3
20260506143036 10 233 8.0 17.7 0.00 0.00 0.00 42 1013.3
20260506141537 10 233 8.0 20.9 0.00 0.00 0.00 42 1013.4
20260506140039 9 297 4.8 20.9 0.00 0.00 0.00 44 1013.4
20260506134538 9 234 4.8 12.9 0.00 0.00 0.00 45 1013.3
20260506133037 8 156 4.8 16.1 0.00 0.00 0.00 46 1013.3
20260506131539 8 255 4.8 11.3 0.00 0.00 0.00 47 1013.1
20260506130032 7 274 3.2 9.7 0.00 0.00 0.00 52 1013.1
20260506124534 7 242 3.2 9.7 0.00 0.00 0.00 53 1013.0
20260506123039 6 282 1.6 8.0 0.00 0.00 0.00 56 1012.8
20260506121538 5 259 1.6 6.4 0.00 0.00 0.00 58 1012.9
20260506120039 5 253 0.0 3.2 0.00 0.00 0.00 62 1013.0
20260506114536 3 280 0.0 1.6 0.00 0.00 0.00 64 1012.7
20260506113043 2 0 0.0 0.0 0.00 0.00 0.00 70 1012.4
20260506111539 1 0 0.0 0.0 0.00 0.00 0.00 73 1012.4
20260506110038 1 0 0.0 0.0 0.00 0.00 0.00 75 1012.1
20260506104536 1 0 0.0 0.0 0.00 0.00 0.00 75 1012.0
20260506103039 1 0 0.0 0.0 0.00 0.00 0.00 75 1011.7
20260506101535 1 0 0.0 0.0 0.00 0.00 0.00 75 1011.8
20260506100039 1 0 0.0 0.0 0.00 0.00 0.00 74 1011.8
20260506094540 1 0 0.0 0.0 0.00 0.00 0.00 72 1011.9
20260506093037 1 0 0.0 0.0 0.00 0.00 0.00 72 1012.0
20260506091536 1 0 0.0 0.0 0.00 0.00 0.00 73 1012.0
20260506090035 1 0 0.0 0.0 0.00 0.00 0.00 72 1012.0
20260506084539 2 0 0.0 0.0 0.00 0.00 0.00 71 1011.8
20260506083031 2 0 0.0 0.0 0.00 0.00 0.00 69 1011.7
20260506081540 2 0 0.0 1.6 0.00 0.00 0.00 69 1011.5
20260506073041 2 0 0.0 0.0 0.00 0.00 0.00 64 1011.2
20260506071542 3 0 0.0 0.0 0.00 0.00 0.00 63 1011.3
20260506061536 5 0 0.0 0.0 0.00 0.00 0.00 53 1011.5
20260506044538 6 0 0.0 1.6 0.00 0.00 0.00 46 1011.6
20260506043035 7 0 0.0 4.8 0.00 0.00 0.00 45 1011.4
20260506041538 7 0 0.0 4.8 0.00 0.00 0.00 43 1011.2
20260506040041 8 17 3.2 9.7 0.00 0.00 0.00 42 1011.0
20260506034544 8 36 6.4 17.7 0.00 0.00 0.00 41 1010.9
20260506033036 8 326 4.8 17.7 0.00 0.00 0.00 40 1011.0
20260506031535 8 37 6.4 12.9 0.00 0.00 0.00 40 1010.9
20260506030043 9 39 4.8 16.1 0.00 0.00 0.00 39 1010.8
20260506024557 9 360 6.4 14.5 0.00 0.00 0.00 39 1010.7
20260506023037 10 304 3.2 12.9 0.00 0.00 0.00 38 1010.5
20260506021536 10 340 3.2 8.0 0.00 0.00 0.00 37 1010.1
20260506020040 10 322 1.6 9.7 0.00 0.00 0.00 36 1009.9
20260506014535 10 303 3.2 11.3 0.00 0.00 0.00 35 1009.6
20260506013058 11 271 4.8 12.9 0.00 0.00 0.00 35 1009.3
20260506011541 11 345 4.8 20.9 0.00 0.00 0.00 34 1009.0
20260506010038 11 304 4.8 20.9 0.00 0.00 0.00 33 1008.9
20260506004536 11 29 4.8 12.9 0.00 0.00 0.00 33 1008.8
20260506003041 12 348 6.4 22.5 0.00 0.00 0.00 32 1008.6
20260506001544 12 347 4.8 25.7 0.00 0.00 0.00 32 1008.6
20260506000040 12 329 3.2 16.1 0.00 0.00 0.00 31 1008.4
20260505234539 12 245 8.0 17.7 0.00 0.00 0.00 31 1008.5
20260505233036 12 271 4.8 17.7 0.00 0.00 0.00 32 1008.6
20260505231538 12 225 6.4 17.7 0.00 0.00 0.00 31 1008.4
20260505230050 13 335 8.0 19.3 0.00 0.00 0.00 31 1008.4
20260505224540 13 332 6.4 14.5 0.00 0.00 0.00 31 1008.4
20260505223053 13 293 9.7 19.3 0.00 0.00 0.00 31 1008.2
20260505221539 13 294 9.7 27.4 0.00 0.00 0.00 30 1007.9
20260505220042 13 287 9.7 29.0 0.00 0.00 0.00 31 1008.0
20260505214536 13 319 9.7 25.7 0.00 0.00 0.00 32 1008.1
20260505213050 13 307 11.3 25.7 0.00 0.00 0.00 32 1008.2
20260505211535 13 203 4.8 17.7 0.00 0.00 0.00 33 1007.9
20260505210032 13 303 11.3 29.0 0.00 0.00 0.00 30 1008.1
20260505204540 13 294 8.0 25.7 0.00 0.00 0.00 32 1008.2
20260505203044 13 336 8.0 17.7 0.00 0.00 0.00 33 1008.4
20260505201537 13 265 9.7 29.0 0.00 0.00 0.00 33 1008.5
20260505200035 13 325 9.7 25.7 0.00 0.00 0.00 34 1008.5
20260505194540 12 279 8.0 20.9 0.00 0.00 0.00 34 1008.7
20260505193045 12 264 8.0 19.3 0.00 0.00 0.00 36 1008.6
20260505191544 12 298 12.9 24.1 0.00 0.00 0.00 36 1008.9
20260505190040 12 304 8.0 22.5 0.00 0.00 0.00 36 1008.7
20260505184540 12 272 6.4 20.9 0.00 0.00 0.00 37 1008.7
20260505183038 12 255 8.0 25.7 0.00 0.00 0.00 37 1008.6
20260505181539 12 297 9.7 25.7 0.00 0.00 0.00 34 1008.5
20260505180038 12 281 8.0 19.3 0.00 0.00 0.00 32 1008.2
20260505174535 12 243 11.3 24.1 0.00 0.00 0.00 37 1008.2
20260505173046 12 321 6.4 25.7 0.00 0.00 0.00 37 1008.5
20260505171539 12 229 14.5 24.1 0.00 0.00 0.00 37 1008.3
20260505170039 12 264 11.3 25.7 0.00 0.00 0.00 37 1008.0
20260505164549 11 283 11.3 30.6 0.00 0.00 0.00 36 1007.8